Location: Wells
(51.2093°N, 2.6446°W)
Time: 20:38:30
(UTC+00:00)

KKS-1 - Visible Passes

Search period start: 16 March 2026 00:00
Search period end: 26 March 2026 00:00
Orbit: 616 x 625 km, 98.1° (Epoch: 16 March)

Date Brightness Start Highest point End Pass type
(mag) Time Alt. Az. Time Alt. Az. Time Alt. Az.
16 Mar ? 02:22:18 10° NNW 02:22:23 10° NNW 02:22:23 10° NNW visible
17 Mar ? 01:02:33 10° NNE 01:02:51 12° NNE 01:02:51 12° NNE visible
18 Mar ? 01:19:58 10° N 01:20:29 13° N 01:20:29 13° N visible
19 Mar ? 01:37:26 10° N 01:38:07 14° N 01:38:07 14° N visible
20 Mar ? 01:54:58 10° N 01:55:45 14° N 01:55:45 14° N visible
21 Mar ? 00:35:49 10° NNE 00:36:12 12° NNE 00:36:12 12° NNE visible
21 Mar ? 02:12:38 10° NNW 02:13:23 13° NNW 02:13:23 13° NNW visible
22 Mar ? 00:53:06 10° NNE 00:53:50 15° NNE 00:53:50 15° NNE visible
22 Mar ? 02:30:27 10° NNW 02:31:00 12° NNW 02:31:00 12° NNW visible
23 Mar ? 01:10:27 10° N 01:11:27 17° N 01:11:27 17° N visible
24 Mar ? 01:27:52 10° N 01:29:04 18° N 01:29:04 18° N visible
25 Mar ? 00:09:16 10° NNE 00:09:30 11° NE 00:09:30 11° NE visible
25 Mar ? 01:45:21 10° N 01:46:41 18° NNW 01:46:41 18° NNW visible
